Starlink 1039

operational
NORAD ID: 44744 Int'l Des: 2019-074 Owner: SPXS Country: US Constellation: starlink
LEOCIRCULAR

Über Starlink 1039

Beschreibung wird geladen...

Live-Position

3D-Globus wird geladen...

Nächste Überflüge

Höhenverlauf

Altitude vs Time

uPlot chart will show altitude changes over time

Zweizeiliger Elementsatz

1 44744U 19074AH 25305.66018377 .00041534 00000-0 23338-2 0 9995
2 44744 53.0510 79.2766 0004968 151.9220 208.2040 15.12916976328920
Epoch: 1. Nov. 2025 • Age: 21 hours

Aktueller Status

Höhe 527.7 km
Geschwindigkeit 7.61 km/s
Subsatellitenpunkt 40.07°N, 20.95°W
Startdatum 11. Nov. 2019
Alter 5.9 years
Typ internet

Technische Details

Klassifizierung Payload
Masse 260.00 kg
Trockenmasse 248.00 kg
Gesamtmasse 260.00 kg
Länge 0.20 m
Durchmesser 2.80 m
Spannweite 9.00 m
Form Box + pan
Hersteller SPXS
Bus-Typ Starlink
Phasenstatus In Orbit
Besitzer/Staat SPXS/US

Große Konstellationen

Loading constellations...